Theta_e
336 338 336 338 337 334 336 336 337 332 329 330 330 331 330 329 327 327 327 324 324 323 323 325 325 325 326 326 326 327 326 327 327 327 325 324 320 320 319 318 322 324 325
339 331 331 330 338 337 335 332 330 329 329 330 330 327 327 327 327 327 326 324 324 322 321 320 319 318 317 318 319 320 320 322 319 321 323 322 321 320 319 319 319 323 324
331 330 329 327 333 336 332 331 330 330 330 329 328 326 326 327 326 324 323 321 320 320 320 319 318 318 317 316 315 317 318 319 321 321 320 319 319 319 321 319 319 321 322
335 335 335 333 333 334 332 331 330 328 327 326 324 322 318 316 317 317 318 317 316 316 315 315 314 312 314 314 315 314 315 315 316 318 320 321 321 321 320 320 320 320 320
333 332 333 335 334 331 330 327 326 325 324 322 320 318 314 312 314 311 311 311 311 311 311 311 308 309 314 314 316 314 315 315 314 314 316 318 319 319 320 320 320 320 320
330 329 331 329 327 327 328 326 322 321 320 318 312 308 312 313 312 312 313 313 312 312 312 311 311 310 309 312 312 312 314 313 314 313 313 315 315 316 316 317 319 319 318
330 330 328 327 325 322 322 321 320 319 317 312 310 312 313 313 313 313 313 313 313 313 311 310 312 312 312 312 311 311 311 312 313 314 314 313 313 312 313 314 316 317 318
327 324 323 322 321 320 319 318 315 313 313 314 312 312 313 313 313 313 312 311 312 311 310 310 311 311 310 311 311 310 310 312 311 313 313 313 311 311 313 313 313 313 314
323 321 319 318 316 315 314 313 313 314 315 314 314 315 314 313 312 312 311 310 310 310 310 311 311 311 310 311 311 310 310 309 308 311 311 311 311 310 312 313 313 313 315
323 320 318 316 314 313 313 313 313 314 315 316 314 313 313 312 312 311 312 310 311 311 311 311 311 311 311 311 311 311 311 310 310 308 308 309 311 310 310 311 312 313 313
320 319 317 314 313 314 313 313 314 315 315 315 314 313 312 310 311 309 311 310 312 311 311 310 310 309 309 309 310 310 310 310 310 310 309 307 309 310 310 311 311 311 312
314 314 313 314 313 313 314 314 314 314 314 313 311 310 309 309 310 310 311 311 311 309 309 308 308 308 308 308 308 308 308 308 308 308 308 307 310 310 310 310 312 311 312
314 314 314 314 314 315 315 314 314 313 312 310 309 309 309 310 311 311 311 308 308 308 307 307 306 306 307 308 308 308 310 310 309 311 311 310 309 309 309 309 311 312 312
314 315 314 314 315 314 314 314 312 311 311 310 310 310 310 310 311 309 308 307 307 306 307 306 306 306 306 307 308 308 310 310 309 309 310 309 309 310 310 310 310 312 312
314 315 315 315 314 313 312 311 310 311 311 310 310 310 310 310 307 306 307 308 307 307 307 306 306 306 306 307 308 308 308 308 308 308 309 310 310 310 310 311 310 310 312
314 315 315 314 312 311 310 310 310 310 310 310 309 308 308 308 307 307 308 307 306 306 306 306 307 307 306 307 307 306 307 307 307 307 308 309 309 310 309 311 311 310 311
314 313 312 311 310 310 310 310 310 310 309 307 307 306 307 307 307 306 306 305 302 303 305 305 304 304 306 306 307 307 306 307 307 307 307 306 307 308 308 309 311 311 310
313 311 311 310 309 310 310 310 309 307 307 307 307 306 306 306 305 305 304 303 303 302 302 302 302 302 302 303 306 306 307 307 307 306 306 307 307 307 306 307 308 307 307
312 311 310 309 309 308 306 306 307 308 308 306 306 305 305 304 304 304 303 303 303 302 302 303 303 303 303 305 304 304 306 306 304 304 305 307 308 306 306 307 307 307 307
310 311 309 309 306 306 307 307 307 306 305 306 305 304 304 304 303 303 303 303 302 301 300 300 301 302 303 303 303 303 303 303 303 304 305 306 307 306 306 306 306 306 307
311 311 309 308 306 306 305 305 306 306 306 305 304 304 304 304 303 303 303 302 302 301 300 298 299 299 301 301 302 302 302 302 301 302 303 304 306 307 307 307 307 307 309
311 310 309 308 307 308 307 305 305 306 305 305 304 304 304 304 303 303 303 302 302 301 300 298 298 298 300 300 300 300 300 300 299 299 300 302 303 305 306 307 307 307 307
309 310 309 308 308 308 308 308 308 307 307 307 307 306 305 304 303 303 302 302 302 301 300 299 298 299 300 299 299 300 300 299 300 299 299 299 300 301 302 304 305 305 306
310 310 310 308 308 309 308 308 307 307 307 306 306 305 304 304 303 303 302 302 302 301 300 299 296 298 299 299 300 301 300 300 300 301 301 301 301 300 300 300 302 303 303
309 310 309 309 309 308 307 306 306 306 305 305 305 305 304 303 303 302 302 301 301 300 300 299 297 297 299 299 299 301 301 301 302 302 302 301 301 299 299 299 300 302 301
307 308 308 307 306 307 305 304 304 305 304 305 304 303 303 303 302 301 301 301 300 300 299 299 298 296 297 299 299 299 302 302 302 302 302 302 302 301 301 301 301 300 300
Wind_Speed
12 9 12 12 18 21 22 22 16 13 16 13 11 9 12 14 17 16 15 16 18 20 20 20 21 21 21 22 24 25 25 34 35 38 36 37 20 23 27 26 28 34 35
14 14 25 22 15 16 18 11 11 11 11 10 13 15 16 16 17 15 16 18 16 15 15 17 16 16 16 16 16 18 17 16 25 25 22 23 25 19 22 25 25 27 35
8 7 7 15 14 13 7 7 10 6 8 11 12 13 15 16 18 16 14 15 16 17 18 19 21 21 18 16 17 17 14 15 15 15 23 22 23 24 25 25 23 25 28
6 6 3 4 5 5 6 5 4 7 12 16 20 22 21 22 18 17 16 16 16 16 16 17 18 18 18 18 17 16 16 14 15 17 18 21 23 25 27 32 39 38 32
3 6 6 7 9 6 4 3 8 13 15 16 19 22 25 21 14 16 15 16 18 19 18 18 19 16 17 16 15 16 15 16 16 16 18 18 19 20 25 29 29 32 32
4 4 9 9 7 6 12 13 12 11 16 19 22 20 12 13 16 14 19 20 19 18 19 18 18 17 18 18 18 17 16 17 17 15 17 18 18 17 17 24 36 40 35
7 9 9 9 7 5 5 8 13 18 17 15 15 10 12 16 16 17 21 22 21 18 20 20 20 19 22 19 22 22 21 17 17 17 17 17 16 15 16 16 20 32 35
12 10 5 1 5 7 9 10 13 15 12 14 15 15 17 21 20 20 21 20 17 22 23 21 23 19 20 22 21 19 18 15 16 17 17 16 15 15 17 17 17 22 21
3 1 1 4 5 6 8 12 13 15 14 13 13 16 20 20 18 20 22 24 23 25 25 22 22 23 23 21 23 24 24 21 16 18 20 18 18 17 15 16 17 18 27
6 5 6 8 10 11 14 13 16 13 15 13 16 20 19 23 19 24 26 28 27 23 19 21 22 24 23 26 29 29 29 29 27 23 20 23 21 19 17 18 16 18 20
6 7 8 11 12 13 13 15 15 16 17 22 26 21 25 28 23 25 27 27 22 23 28 27 29 29 29 30 30 34 36 35 34 33 31 27 25 24 23 22 22 22 23
7 7 8 9 11 12 15 18 20 21 21 20 24 27 23 18 12 19 23 21 24 27 28 29 29 27 26 26 24 25 25 24 27 31 33 27 23 23 24 26 26 26 28
7 9 10 11 12 14 15 13 12 15 21 20 19 18 17 16 15 15 15 19 22 22 22 22 24 24 23 21 18 17 17 18 15 12 15 19 21 22 21 19 19 20 22
7 8 10 13 12 12 11 14 17 17 15 17 16 16 19 17 15 16 18 18 13 16 19 24 28 35 20 21 14 12 11 7 9 13 13 12 13 13 14 16 18 17 15
9 8 8 9 10 13 16 16 16 15 14 19 20 18 15 11 14 21 17 9 11 15 17 19 24 29 31 33 22 13 9 11 13 14 14 13 11 13 15 14 15 16 21
10 11 14 16 19 20 16 12 15 16 19 19 14 13 14 15 15 13 7 10 13 15 15 16 20 22 23 23 28 22 17 15 16 12 7 7 7 9 17 16 18 18 29
11 15 17 17 15 13 11 13 16 17 21 16 10 10 10 12 15 15 11 12 17 15 14 15 17 17 16 18 19 18 23 23 23 19 16 11 11 7 5 3 24 31 35
14 16 12 10 11 9 13 15 17 15 9 12 11 18 16 14 13 11 11 11 14 16 15 14 15 17 17 19 12 15 9 12 13 13 18 20 7 2 2 5 27 34 30
15 8 5 11 10 13 14 10 6 6 8 17 15 13 14 14 13 12 13 16 19 20 17 16 16 16 18 15 12 13 10 10 13 15 14 14 14 13 10 15 18 22 30
6 2 2 6 9 13 10 7 8 11 16 11 11 11 11 11 11 10 13 17 18 22 23 20 15 14 14 15 14 10 10 11 12 13 13 10 10 14 13 18 22 23 16
3 1 2 3 3 13 13 13 13 12 8 8 8 8 8 9 6 9 12 15 18 21 26 23 20 16 12 13 11 10 11 11 11 9 8 7 7 8 11 12 12 11 18
4 2 2 1 4 7 9 9 11 11 10 9 5 6 8 8 6 7 12 16 17 21 27 26 21 16 15 14 13 14 14 14 13 10 9 7 8 8 8 8 11 14 15
1 1 3 2 4 6 9 7 7 7 9 9 5 4 1 2 4 7 11 13 16 20 24 27 21 15 14 14 15 16 16 15 16 15 13 11 7 6 7 8 10 11 12
1 3 2 1 4 7 7 11 12 9 11 7 3 3 5 5 4 5 6 11 15 19 21 26 21 14 11 13 15 17 18 12 11 12 11 10 11 8 7 8 10 12 11
2 3 2 2 7 6 7 6 4 5 6 9 7 6 4 2 4 5 7 10 15 17 19 23 22 14 9 9 9 12 16 15 12 11 12 12 11 12 12 14 12 12 11
9 8 2 4 4 2 7 11 11 9 5 8 7 6 5 3 3 3 4 5 9 13 16 19 20 18 9 4 5 6 10 13 12 17 13 12 11 11 11 11 10 11 11
Wind_Direction
229 230 266 260 266 257 256 266 267 266 283 296 309 318 316 305 302 304 302 303 304 306 304 301 302 304 306 300 297 297 301 293 272 270 252 257 245 267 262 265 254 249 240
219 272 299 244 248 266 267 259 273 283 310 324 319 314 310 310 312 308 298 305 307 312 314 313 317 317 320 321 320 323 303 286 292 285 280 272 255 261 263 264 260 247 240
233 274 251 253 263 276 260 255 279 290 306 314 314 318 321 319 317 311 309 315 310 309 308 309 312 315 317 317 319 316 313 308 311 267 273 260 269 264 264 250 251 247 247
227 215 202 166 143 214 255 246 243 279 309 313 318 324 327 325 314 315 318 316 318 315 314 315 318 318 312 314 315 314 311 308 299 285 280 268 264 265 257 261 254 252 240
147 146 163 188 218 206 201 266 294 302 307 323 326 323 319 316 325 333 335 330 324 313 311 313 314 309 313 311 307 306 303 303 304 297 284 280 273 272 263 268 248 231 222
183 200 199 172 192 258 273 276 288 312 322 323 330 325 321 319 319 314 321 322 315 317 320 308 310 319 308 308 305 309 294 285 289 289 291 276 281 270 269 263 252 244 233
193 194 215 229 232 234 293 319 319 316 317 332 330 322 323 323 323 317 320 305 309 301 315 319 305 307 305 304 309 305 298 293 281 284 286 281 275 279 275 269 255 248 249
159 156 156 223 317 318 312 314 317 319 313 306 322 322 316 318 313 317 319 327 300 307 310 306 304 303 300 303 306 306 302 297 280 275 284 279 278 282 267 267 268 259 255
161 175 7 350 343 334 328 328 312 311 300 301 297 305 322 333 333 332 326 322 304 305 307 295 295 300 296 291 293 297 299 298 288 278 277 269 269 271 264 255 252 255 249
303 306 326 329 333 327 320 315 319 309 287 282 300 314 305 295 301 326 321 320 315 314 315 304 294 298 294 290 289 288 285 285 286 286 282 273 265 260 258 256 255 255 249
285 297 317 323 323 314 313 318 323 322 300 301 315 319 313 323 289 323 311 315 313 313 317 313 308 306 300 292 284 281 281 283 277 278 281 284 268 259 255 255 255 255 257
323 322 322 324 305 297 296 302 315 316 315 322 321 318 315 331 315 306 310 314 319 321 319 317 316 315 311 304 296 295 292 288 280 270 269 270 264 258 259 260 255 255 259
313 307 301 298 295 294 303 314 319 319 321 323 327 341 353 352 337 332 332 333 334 333 337 347 345 319 304 307 304 301 305 298 289 273 267 269 270 266 261 251 258 254 250
307 296 296 300 290 308 319 313 317 324 318 320 328 333 333 335 336 338 337 342 4 42 27 17 22 25 12 1 334 319 318 294 309 313 298 294 291 262 256 251 240 240 228
320 308 299 309 321 322 322 325 324 316 315 324 324 320 324 325 335 330 335 355 16 19 22 24 17 19 22 26 21 17 357 350 328 311 297 284 276 262 249 240 227 235 219
321 319 316 321 323 327 327 321 321 324 325 324 325 328 319 315 326 334 18 52 23 4 4 9 13 12 11 17 29 24 14 23 12 346 320 302 273 269 254 238 226 220 197
324 330 331 326 323 317 311 321 323 327 325 324 341 354 4 54 66 74 53 43 33 26 19 12 9 11 7 12 10 30 39 34 29 24 18 334 311 312 246 100 210 175 157
333 328 328 326 323 320 323 321 320 327 13 42 67 88 80 67 61 52 57 35 24 21 22 17 8 7 5 3 360 355 17 26 17 24 35 32 44 122 33 174 126 140 157
319 322 333 358 340 328 326 341 27 43 62 102 97 86 83 72 65 46 29 21 15 10 2 3 9 13 17 27 36 30 27 28 34 27 29 47 52 67 116 150 156 150 156
302 264 330 346 30 30 43 57 74 93 113 97 91 85 76 64 53 43 20 12 13 16 12 2 354 354 8 11 10 35 46 53 38 36 37 48 70 83 123 128 131 148 158
285 192 82 21 85 52 53 67 86 107 87 68 81 76 57 28 49 32 16 13 15 17 16 11 4 3 9 20 23 29 33 34 34 40 43 55 79 95 115 134 140 163 160
137 93 70 119 36 35 45 59 75 74 72 68 51 52 37 47 28 30 13 10 14 18 19 16 15 26 39 49 47 40 36 36 37 42 48 74 91 107 131 136 144 158 168
90 188 212 225 325 347 6 5 357 348 359 356 5 360 358 1 29 20 3 9 14 19 18 21 26 43 50 47 44 40 40 48 49 55 62 60 80 110 122 137 147 154 162
178 184 187 331 24 335 334 331 316 318 321 330 288 92 58 120 84 14 14 12 16 16 19 21 24 32 46 52 50 46 48 37 45 46 46 50 52 73 99 132 153 159 157
154 155 28 321 307 325 11 14 42 23 73 64 80 115 141 118 87 77 23 12 15 14 15 19 20 26 49 61 52 42 38 36 43 50 46 46 65 82 95 101 118 147 146
67 97 47 359 337 121 126 128 100 107 108 123 108 119 116 99 64 57 44 8 15 12 4 8 14 18 17 42 67 39 44 40 31 43 50 66 79 86 102 96 97 128 145